Location: Bouchavesnes-Bergen
(49.9859°N, 2.9203°E)
Time: 23:29:08
(UTC+00:00)

CZ-2D R/B - Pass Details

Date: 09 March 2021
Orbit: 792 x 844 km, 98.7° (Epoch: 13 April)

Event Time Altitude Azimuth Distance (km) Brightness Sun altitude
Rises 03:02:10 0° 6° (N) 3,318 5.8 -30.4°
Reaches altitude 10° 03:04:56 10° 352° (N) 2,390 4.8 -30.0°
Enters shadow 03:06:52 18° 333° (NNW) 1,901 4.1 -29.8°
